Tracking 31027 objects as of 19-Jul-2025
HD Live streaming from Space Station
objects crossing your sky now

DELTA 1 DEB

Track DELTA 1 DEB now!
10-day predictions


NORAD ID: 21446
Int'l Code: 1975-052EE
Perigee: 1,091.2 km
Apogee: 1,673.0 km
Inclination: 99.7 °
Period: 113.2 minutes
Semi major axis: 7753 km
RCS: 0.0507 m2 (small)
Launch date: June 12, 1975
Source: United States (US)
Launch site: AIR FORCE WESTERN TEST RANGE (AFWTR)

Note: This is SATELLITE DEBRIS
Your satellite tracking list
ICEYE-X27
Track 1 satellite(s)




NASA's NSSDC Master Catalog

Two Line Element Set (TLE):
1 21446U 75052EE  25199.30715295  .00000142  00000-0  64928-3 0  9993
2 21446  99.7199 131.4090 0375223  56.6478  91.2169 12.71712295586980
Source of the keplerian elements: AFSPC